Preview of NWS' New Version of Forecast
This preview is not operational and should not be used for support decisions.
Latest weather observations around

Bishop, Bishop Airport (KBIH)

Using English Units (Switch to International System of Units)
Date/ Time (PST) Wind (mph) Vis. (mi) Weather Sky Cond. Temp (°F) Rel. Humidity Wind Chill (°F) Heat Index (°F) Pressure Precip. (in)
Air Dwpt 6 hour Altimeter (inHg) Sea level (inHg) 1 hr 3 hr 6 hr
Max Min
Feb 19 18:56 NNW 22 10 Cloudy and Windy OVC080 30 3     31% 17   29.85 29.88      
Feb 19 17:56 N 20 10 Mostly Cloudy and Windy FEW085 BKN100 31 4     31% 19   29.82 29.84      
Feb 19 16:56 N 20 10 Mostly Cloudy and Windy BKN090 33 -1     23% 21   29.77 29.8      
Feb 19 15:56 N 22 10 Mostly Cloudy and Windy BKN100 35 -1     21% 24   29.75 29.76      
Feb 19 14:56 N 22 10 Mostly Cloudy and Windy BKN110 36 -8     15% 25   29.73 29.74      
Feb 19 13:56 N 17 10 Cloudy BKN100 OVC120 39 -6     14% 30   29.72 29.72      
Feb 19 12:56 N 20 10 Mostly Cloudy and Windy BKN085 39 -1     18% 29   29.73 29.73      
Feb 19 11:56 N 22 10 Cloudy and Windy BKN080 OVC100 34 1     24% 22   29.74 29.74      
Feb 19 10:56 N 22 10 Mostly Clear and Windy FEW120 36 0     21% 25   29.73 29.71      
Feb 19 09:56 N 23 10 Mostly Clear and Windy FEW110 35        % 23   29.72 29.7      
Feb 19 08:56 N 21 10 Clear and Windy CLR 35        % 24   29.71 29.68      
Feb 19 07:56 N 14 10 Mostly Cloudy BKN110 31        % 21   29.7 29.67      
Feb 19 06:56 Calm 10 Partly Cloudy SCT110 27 1     32%     29.69 29.66      
Feb 19 05:56 N 10 10 Clear CLR 27 4     37% 17   29.66 29.63      
Feb 19 04:56 N 10 10 Clear CLR 26 3     37% 16   29.64 29.61      
Feb 19 03:56 N 15 10 Clear CLR 29 3     32% 18   29.63 29.58      
Feb 19 02:56 N 10 10 Mostly Clear FEW090 30 0     27% 21   29.63 29.57      
Feb 19 01:56 NNE 13 10 Clear CLR 33 6     32% 24   29.63 29.55      
Feb 19 00:56 NW 9 10 Clear CLR 30 8     39% 22   29.61 29.55      
Feb 18 23:56   10 Mostly Clear FEW036 33 11     39%     29.6 29.54      
Feb 18 22:56 WNW 8 10 Mostly Cloudy BKN100 40 4     22% 34     29.52      
Feb 18 21:56 WSW 10 10 Mostly Clear FEW110 40 5     23% 33     29.51      
Feb 18 20:56 WSW 7 10 Clear CLR 43 4     19% 39     29.54      
Feb 18 19:56 WNW 22 10 Clear and Windy CLR 48 -1     13% 41     29.53      
Feb 18 18:56 WSW 11 10 Clear CLR 51 0     12%       29.5      
Feb 18 17:56 WNW 13 10 Clear CLR 53 -3     10%       29.52      
Feb 18 16:56 NW 17 10 Clear CLR 57 -1     9%       29.53      
Feb 18 15:56 W 21 10 Clear and Windy CLR 61 -6     6%       29.55      
Feb 18 14:56 WSW 29 10 Clear and Breezy CLR 65 -5     6%       29.5      
Feb 18 14:30 W 22 9 Clear and Windy CLR 67 -9     4%              
Feb 18 13:56 WSW 13 10 Clear CLR 69 -16     3%       29.47      
Feb 18 12:56 WSW 7 10 Clear CLR 68 -4     5%       29.52      
Feb 18 11:56 6 10 Clear CLR 64 9     11%       29.6      
Feb 18 10:56 7 10 Clear CLR 62 12     14%       29.65      
Feb 18 09:56 Calm 10 Clear CLR 54 12     19%       29.71      
Feb 18 08:56 Calm 10 Clear CLR 47 11     23%       29.74      
Feb 18 07:56 NNE 6 10 Clear CLR 34 13     41% 29     29.78      
Feb 18 06:56 SW 6 10 Clear CLR 24 9     52% 17     29.79      
Feb 18 05:56 WNW 3 10 Clear CLR 26 10     50% 22     29.81      
Feb 18 04:56 3 10 Clear CLR 27 10     48% 23     29.81      
Feb 18 03:56 Calm 10 Clear CLR 25 9     50%       29.83      
Feb 18 02:56 N 8 10 Clear CLR 27 10     48% 19     29.83      
Feb 18 01:56 NNW 6 10 Clear CLR 28 9     44% 22     29.85      
Feb 18 00:56 N 9 10 Clear CLR 27 10     48% 18     29.89      
Feb 17 23:56 NW 6 10 Clear CLR 30 10     43% 24     29.92      
Feb 17 22:56 WNW 7 10 Clear CLR 32 10     39% 26     29.94      
Feb 17 21:56 WNW 7 10 Clear CLR 34 10     36% 28     29.97      
Feb 17 20:56 Calm 10 Clear CLR 40 10     29%       29.98      
Feb 17 19:56 S 9 10 Clear CLR 47 11     23% 43     29.99      
Feb 17 18:56 S 6 10 Clear CLR 51 8     17%       30.01      
Feb 17 17:56 SSE 11 10 Clear CLR 55 8     15%       29.99      
Feb 17 16:56 SSE 13 10 Clear CLR 62 8     12%       29.98      
Feb 17 15:56 SSE 15 10 Clear CLR 65 9     11%       29.98      
Feb 17 12:56 SE 10 10 Clear CLR 62 10     13%       30.08      
Feb 17 11:56 3 10 Clear CLR 58 9     14%       30.14      
Feb 17 10:56 Calm 10 Clear CLR 55 11     17%       30.19      
Feb 17 09:56 SSE 6 10 Clear CLR 49 12     22% 46     30.22      
Feb 17 08:56 Calm 10 Clear CLR 43 13     29%     30.24 30.22      
Feb 17 07:56 Calm 10 Clear CLR 33 11     39%     30.23 30.22      
Feb 17 06:56 NW 9 10 Clear CLR 23 9     54% 13     30.21      
Feb 17 05:56 NNW 8 10 Clear CLR 24 10     55% 15     30.18      
Feb 17 04:56 NNW 8 10 Clear CLR 22 8     55% 13     30.16      
Feb 17 03:56 NE 8 10 Clear CLR 19 7     59% 9   30.19 30.17      
Feb 17 02:56 NNW 7 10 Clear CLR 21 7     54% 12   30.2 30.18      
Feb 17 01:56 NW 9 10 Clear CLR 24 8     50% 14     30.19      
Feb 17 00:56 NNW 5 10 Clear CLR 26 6     42% 20   30.22 30.19      
Feb 16 23:56 NNW 6 10 Clear CLR 27 6     40% 20   30.22 30.2      
Feb 16 22:56 WNW 7 10 Clear CLR 27 7     42% 19   30.22 30.22      
Feb 16 21:56 NNW 5 10 Clear CLR 31 4     31% 26   30.21 30.21      
Feb 16 20:56 Calm 10 Clear CLR 39 6     25%     30.2 30.19      
Feb 16 19:56 Calm 10 Clear CLR 42 5     21%       30.18      
Jun 12 00:56   10 Clear CLR 47 20     34%     29.84 29.73      
Jun 11 19:56   10 Clear CLR 56 8     14%     29.77 29.67      
Jun 11 18:56   10 Clear CLR 59 7     12%     29.78 29.69      
Jun 11 13:56   10 Clear CLR 75 13     9%   73 29.65 29.54      
Notice The following observation data may not be complete
Jun 11 06:56 3 10 Clear CLR   32      %     29.69 29.55      
Notice The following observation data may not be complete
Jun 11 05:56 NNE 5 10 Clear CLR   28      %       29.56      
Jun 10 23:56 W 7 10 Clear   62 28     27%       29.56      
Jun 10 19:56   10 Clear CLR 74 23     15%   72 29.68 29.54      
Jun 10 16:56 W 11 10 Clear CLR 88        %     29.65 29.51      
Jun 10 08:56 3 10 Clear CLR 70 31     23%       29.63      
Jun 10 04:56 WNW 6 10 Clear CLR 51 32     48%     29.75 29.61      
Jun 10 02:56 NNW 6 10 Clear CLR 55 32     41%     29.77 29.63      
Jun 09 22:56 N 9 10 Clear CLR 67 31     26%     29.78 29.64      
Jun 09 15:56   10 Clear CLR 91 25     9%   86 29.68 29.53      
Jun 09 10:56 SSE 6 10 Clear CLR 79 34     20%   77 29.82 29.68      
Jun 09 09:56 NW 5 10 Clear CLR 77 37     24%   76 29.84 29.7      
Jun 09 00:56 N 14 10 Clear   62 36     38%     29.88 29.73      
Notice The following observation data may not be complete
Jun 08 08:56   10 Clear CLR          %              
Jun 07 14:56 SSE 21 10 Clear and Windy CLR 96        %     29.85 29.7      
Jun 06 10:56 N 5 10 Clear CLR 87 34     15%   84   29.82      
Jun 05 21:56 N 5 10 Clear CLR 75 33     22%   73   29.76      
Jun 05 18:56 S 10 10 Clear CLR 90 30     12%   86   29.71      
Jun 05 17:56 SSW 7 10 Clear CLR 92 27     10%   87   29.71      
Jun 05 12:56 WNW 6 10 Clear CLR 88 31     13%   84   29.78